SCP
0 0 0 0 0 0 0 0 0 0 0 0 0 0 0 0 0 0 0 0 0 0 0 0 0 0 0 0 0 0 0 0 0 0 0 0 0 0 0 0 0 0 0 0
0 0 0 0 0 0 0 0 0 0 0 0 0 0 0 0 0 0 0 0 0 0 0 0 0 0 0 0 0 0 0 0 0 0 0 0 0 0 0 0 0 0 0 0
0 0 0 0 0 0 0 0 0 0 0 0 0 0 0 0 0 0 0 0 0 0 0 0 0 0 0 0 0 0 0 0 0 0 0 0 0 0 0 0 0 0 0 0
0 0 0 0 0 0 0 0 0 0 0 0 0 0 0 0 0 0 0 0 0 0 0 0 0 0 0 0 0 0 0 0 0 0 0 0 0 0 0 0 0 0 0 0
0 0 0 0 0 0 0 0 0 0 0 0 0 0 0 0 0 0 0 0 0 0 0 0 0 0 0 0 0 0 0 0 0 0 0 0 0 0 0 0 0 0 0 0
0 0 0 0 0 0 0 0 0 0 0 0 0 0 0 0 0 0 0 0 0 0 0 0 0 0 0 0 0 0 0 0 0 0 0 0 0 0 0 0 0 0 0 0
0 0 0 0 0 0 0 0 0 0 0 0 0 0 0 0 0 0 0 0 0 0 0 0 0 0 0 0 0 0 0 0 0 0 0 0 0 0 0 0 0 0 0 0
0 0 0 0 0 0 0 0 0 0 0 0 0 0 0 0 0 0 0 0 0 0 0 0 0 0 0 0 0 0 0 0 0 0 0 0 0 0 0 0 0 0 0 0
0 0 0 0 0 0 0 0 0 0 0 0 0 0 0 0 0 0 0 0 0 0 0 0 0 0 0 0 0 0 0 0 0 0 0 0 0 0 0 0 0 0 0 0
0 0 0 0 0 0 0 0 0 0 0 0 0 0 0 0 0 0 0 0 0 0 0 0 0 0 0 0 0 0 0 0 0 0 0 0 0 0 0 0 0 0 0 0
0 0 0 0 0 0 0 0 0 0 0 0 0 0 0 0 0 0 0 0 0 0 0 0 0 0 0 0 0 0 0 0 0 0 0 0 0 0 0 0 0 0 0 0
0 0 0 0 0 0 0 0 0 0 0 0 0 0 0 0 0 0 0 0 0 0 0 0 0 0 0 0 0 0 0 0 0 0 0 0 0 0 0 0 0 0 0 0
0 0 0 0 0 0 0 0 0 0 0 0 0 0 0 0 0 0 0 0 0 0 0 0 0 0 0 0 0 0 0 0 0 0 0 0 0 0 0 0 0 0 0 0
0 0 0 0 0 0 0 0 0 0 0 0 0 0 0 0 0 0 0 0 0 0 0 0 0 0 0 0 0 0 0 0 0 0 0 0 0 0 0 0 0 0 0 0
0 0 0 0 0 0 0 0 0 0 0 0 0 0 0 0 0 0 0 0 0 0 0 0 0 0 0 0 0 0 0 0 0 0 0 0 0 0 0 0 0 0 0 0
0 0 0 0 0 0 0 0 0 0 0 0 0 0 0 0 0 0 0 0 0 0 0 0 0 0 0 0 0 0 0 0 0 0 0 0 0 0 0 0 0 0 0 0
0 0 0 0 0 0 0 0 0 0 0 0 0 0 0 0 0 0 0 0 0 0 0 0 0 0 0 0 0 0 0 0 0 0 0 0 0 0 0 0 0 0 0 0
0 0 0 0 0 0 0 0 0 0 0 0 0 0 0 0 0 0 0 0 0 0 0 0 0 0 0 0 0 0 0 0 0 0 0 0 0 0 0 0 0 0 0 0
0 0 -0 -0 -0 0 0 0 0 0 0 0 0 0 0 0 0 0 0 0 0 0 0 0 0 0 0 0 0 0 0 0 0 0 0 0 0 0 0 0 0 0 0 0
0 -0 -0 -0 -0 0 0 0 0 0 0 0 0 0 0 0 0 0 0 0 0 0 0 0 0 0 0 0 0 0 0 0 0 0 0 0 0 0 0 0 0 0 0 0
0 0 0 0 0 0 0 0 0 0 0 0 0 0 0 0 0 0 0 0 0 0 0 0 0 0 0 0 0 0 0 0 0 0 0 0 0 0 0 0 0 0 0 0
0 0 0 0 0 0 0 0 0 0 0 0 0 0 0 0 0 0 0 0 0 0 0 0 0 0 0 0 0 0 0 0 0 0 0 0 0 0 0 0 0 0 0 0
0 0 0 0 0 0 0 0 0 0 0 0 0 0 0 0 0 0 0 0 0 0 0 0 0 0 0 0 0 0 0 0 0 0 0 0 0 0 0 0 0 0 0 0
0 0 0 0 0 0 0 0 0 0 0 0 0 0 0 0 0 0 0 0 0 0 0 0 0 0 0 0 0 0 0 0 0 0 0 0 0 0 0 0 0 0 0 0
-0 -0 0 0 0 0 0 0 0 0 0 0 0 0 0 0 0 0 0 0 0 0 0 0 0 0 0 0 0 0 0 0 0 0 0 0 0 0 0 0 0 0 0 0
-0 -0 0 0 0 0 0 0 0 0 0 0 0 0 0 0 0 0 0 0 0 0 0 0 0 0 0 0 0 0 0 0 0 0 0 0 0 0 0 0 0 0 0 0
0 0 0 0 0 0 0 0 0 0 0 0 0 0 0 0 0 0 0 0 0 0 0 0 0 0 0 0 0 0 0 0 0 0 0 0 0 0 0 0 0 0 0 0
Wind_Speed
5 6 4 5 6 4 4 7 8 9 8 10 11 11 11 10 10 11 12 13 13 12 11 10 9 8 8 8 7 7 7 7 6 6 5 5 5 5 4 4 5 4 4 5
4 4 3 4 5 6 5 3 5 4 6 7 6 5 6 8 12 12 14 14 14 13 12 12 11 10 9 8 8 7 8 7 6 6 5 5 5 5 4 4 4 4 5 5
4 5 4 4 4 2 0 0 3 3 5 0 3 6 9 9 11 13 14 14 15 14 14 13 12 11 11 9 7 8 7 7 6 6 6 6 5 4 5 5 4 5 5 5
1 2 3 7 3 1 5 5 4 2 1 2 5 6 7 7 10 10 12 13 13 12 11 10 9 9 8 7 8 8 7 7 6 6 6 6 5 5 5 4 5 5 5 6
3 2 5 4 4 3 2 2 5 1 2 2 3 5 2 2 6 10 11 10 10 11 11 10 10 9 8 7 7 7 7 7 7 7 6 6 6 6 5 4 5 5 5 6
3 2 4 4 5 5 3 2 5 3 3 3 6 3 4 4 3 4 5 6 7 7 7 9 9 8 8 8 7 8 8 8 7 6 6 7 7 6 5 5 6 5 6 6
3 2 5 3 6 5 3 4 4 1 3 4 3 3 4 2 1 3 4 5 6 7 7 8 8 9 9 8 8 8 7 6 5 6 6 6 5 5 5 5 5 6 7 7
3 3 6 2 3 2 4 3 2 0 2 3 1 1 1 2 2 2 2 2 5 6 5 5 6 8 7 7 7 5 5 5 5 5 5 5 5 5 5 5 6 7 6 7
6 6 5 2 3 3 3 2 2 0 1 2 2 2 1 2 2 2 3 3 3 5 5 3 4 6 6 6 4 4 4 4 4 4 5 4 5 5 5 5 5 6 6 7
2 3 3 1 1 1 1 1 2 1 2 3 3 1 3 4 3 2 1 1 2 3 4 3 2 3 3 2 3 4 4 4 3 4 4 4 4 4 5 5 6 6 6 7
2 3 1 3 4 4 2 1 1 3 4 5 5 4 4 3 3 2 2 2 3 3 3 2 3 2 2 1 1 1 2 3 3 3 4 4 5 5 6 7 7 7 7 6
7 7 5 4 4 4 4 3 4 6 6 6 7 7 6 5 4 4 4 4 4 4 4 3 4 3 3 2 2 1 2 3 3 3 3 4 5 6 9 10 13 14 14 11
6 7 5 3 2 5 6 5 6 8 8 7 6 7 7 5 5 6 6 5 4 4 4 4 4 3 3 3 2 2 2 3 3 3 4 5 5 5 7 8 10 11 14 14
9 9 7 4 5 7 8 9 8 8 7 6 6 6 6 6 6 6 5 4 4 4 4 4 4 3 3 2 2 2 3 4 4 4 4 5 5 6 5 6 6 6 8 12
8 8 7 6 9 8 8 8 9 8 7 7 6 6 6 6 5 4 4 4 5 5 4 3 3 2 3 2 3 3 3 3 4 4 4 5 5 5 5 6 6 6 6 6
8 9 9 10 10 9 9 9 8 6 6 5 5 5 5 5 4 4 4 4 5 3 1 1 1 2 2 2 2 2 3 7 6 4 5 5 5 5 5 5 6 5 6 6
9 8 8 9 8 8 7 6 6 5 5 5 4 3 4 4 4 3 3 2 2 1 0 1 1 1 1 1 1 2 3 5 8 6 5 6 6 6 6 5 5 5 6 7
7 7 8 8 7 7 7 6 6 5 4 3 3 3 3 3 2 0 0 1 2 2 2 3 2 1 1 1 1 2 3 4 4 5 5 5 6 6 6 6 6 6 6 6
8 8 8 8 7 6 5 5 4 4 4 3 3 1 0 1 1 2 1 0 1 2 4 4 3 1 2 3 2 2 3 5 5 5 5 7 7 5 5 6 6 6 6 6
7 7 7 7 6 5 4 3 4 3 3 2 2 1 1 1 2 2 1 2 3 5 5 4 2 2 3 4 4 3 4 5 5 6 6 6 6 6 5 6 6 6 6 5
7 7 6 5 5 4 3 3 2 3 4 3 1 2 2 3 3 2 2 3 5 5 4 4 2 2 3 4 5 4 4 5 5 5 5 6 6 5 5 6 6 6 5 5
5 5 5 4 4 3 3 2 2 3 4 3 3 3 3 4 4 4 4 5 5 5 3 2 2 4 5 5 3 4 4 5 5 5 5 5 5 5 6 6 6 5 5 5
3 2 2 2 2 3 4 4 5 4 5 5 5 5 5 5 4 3 4 4 4 5 3 3 5 6 6 4 3 3 4 4 5 5 5 5 5 5 6 7 6 5 5 5
2 2 3 3 3 3 5 6 6 5 5 5 5 5 4 3 3 3 4 5 5 4 3 4 7 7 5 2 2 3 3 4 4 5 5 5 5 5 5 6 6 6 6 7
3 4 4 4 4 4 5 5 5 5 5 4 5 4 3 2 3 3 3 3 4 3 3 4 5 5 3 2 2 2 3 3 4 5 5 5 5 5 5 6 6 6 5 5
4 3 3 4 3 3 2 2 2 3 3 3 4 4 4 3 3 3 2 3 3 2 1 2 2 3 2 2 2 2 2 3 4 4 4 5 6 6 6 7 8 6 5 5
4 4 3 4 3 3 2 2 2 3 3 2 3 4 4 4 3 3 3 2 1 1 1 1 2 2 1 1 2 2 2 2 3 4 4 5 5 6 6 8 6 5 5 5
Wind_Direction
230 226 215 231 251 241 209 197 192 222 213 222 208 197 192 182 169 161 163 166 168 169 171 172 172 174 173 175 174 168 166 177 194 201 201 202 209 218 225 228 230 232 239 248
307 284 277 284 287 270 254 229 223 212 234 239 200 171 163 162 161 167 171 172 173 172 172 175 177 178 176 178 178 170 175 190 198 196 199 206 215 221 227 234 238 238 241 247
276 300 351 301 274 270 95 55 146 183 240 250 123 155 167 170 169 172 174 174 175 178 180 181 182 178 180 182 177 176 186 195 197 195 202 213 216 213 222 230 232 241 247 247
220 6 249 246 256 53 99 60 48 115 80 131 169 182 166 163 164 170 176 178 180 180 181 182 179 179 178 173 174 183 192 199 200 197 206 212 212 220 227 226 230 239 246 248
148 205 261 293 329 354 107 36 351 15 83 51 64 61 30 208 171 174 177 178 181 184 179 176 178 176 169 178 181 187 197 203 205 201 205 209 216 226 227 224 234 238 244 247
142 170 231 262 307 314 95 13 327 9 56 59 77 93 259 262 193 168 168 170 172 172 170 175 181 166 168 182 186 199 204 205 204 201 203 211 220 226 226 223 234 242 250 248
154 194 251 268 321 6 103 240 285 3 69 66 90 197 246 284 192 157 159 162 160 159 170 186 177 163 173 181 197 205 200 198 199 202 207 215 223 229 230 232 240 245 253 259
138 179 241 288 28 127 196 225 265 82 105 83 53 314 358 89 109 110 122 139 152 157 174 180 167 163 175 195 205 189 182 192 203 211 218 217 221 237 237 232 241 250 256 266
179 210 241 221 185 218 173 172 246 132 37 87 54 1 18 78 100 123 130 141 155 158 154 155 164 163 181 211 196 180 185 203 216 223 229 228 226 241 250 242 241 250 250 258
141 256 251 243 189 215 144 158 250 137 130 121 130 94 65 78 81 71 73 98 109 123 142 161 163 162 188 194 170 170 192 216 228 237 251 254 247 242 246 250 250 250 250 253
149 220 237 288 228 210 178 142 103 94 101 105 102 86 83 76 67 64 54 55 78 102 110 94 74 62 36 42 121 187 233 245 252 250 256 267 265 254 250 246 243 239 244 241
192 199 170 210 219 175 141 131 131 114 86 77 92 93 84 72 57 58 55 58 65 67 73 74 73 51 23 16 35 22 312 301 290 283 277 274 278 287 275 263 267 256 247 242
148 144 138 143 137 125 116 106 99 96 97 88 78 83 86 76 64 64 60 61 68 76 78 72 65 44 19 19 37 32 317 295 290 286 284 282 281 278 288 294 286 275 264 256
107 104 89 86 100 99 98 97 90 81 80 89 87 80 80 76 67 61 54 53 65 73 73 78 73 39 3 16 24 357 328 313 307 291 287 284 282 277 271 274 287 290 279 264
78 97 116 106 87 81 80 81 77 70 68 66 72 77 80 81 74 67 61 64 63 59 53 61 57 5 342 15 23 354 331 314 306 298 292 286 286 282 277 275 273 277 286 285
94 92 96 91 87 81 75 73 75 67 66 65 64 71 81 90 83 67 53 61 71 61 40 62 27 320 331 14 15 347 323 319 321 310 305 304 300 290 285 284 282 279 277 271
97 95 95 92 89 85 83 84 83 74 66 64 66 75 80 80 68 53 35 43 77 88 199 183 239 281 327 17 5 320 310 311 317 316 305 300 297 292 287 284 283 281 276 270
91 102 105 103 97 86 75 69 64 59 56 54 56 62 76 89 97 111 287 10 25 354 285 249 245 257 298 331 318 301 301 299 301 299 298 297 296 292 290 286 283 284 286 285
90 87 84 84 86 86 78 66 54 41 30 30 32 33 129 174 195 218 231 306 321 294 275 261 259 237 261 282 296 288 296 299 300 297 295 298 299 294 295 292 288 284 284 283
76 74 74 72 71 76 74 63 49 26 1 0 5 1 349 284 263 252 255 263 248 238 243 248 247 252 262 278 296 286 290 292 294 297 300 299 296 297 300 299 293 287 287 283
69 66 64 59 50 46 44 40 27 348 326 328 309 246 255 270 266 245 240 269 270 260 253 250 236 249 261 279 292 287 290 294 298 298 299 298 298 299 302 303 300 296 296 296
56 53 48 41 34 7 340 336 325 314 309 299 277 257 262 271 272 266 252 236 246 249 238 235 237 256 274 287 286 290 295 302 305 304 301 300 302 305 304 304 303 304 302 297
44 37 20 355 327 304 310 311 303 294 282 273 265 261 257 254 247 239 265 260 248 245 233 235 245 262 280 282 281 290 300 307 308 308 306 301 301 304 303 302 305 307 304 301
336 314 296 293 306 314 304 295 295 289 282 280 273 267 259 269 281 257 239 253 251 248 243 250 261 274 287 281 283 291 297 303 305 306 305 305 308 309 306 311 315 310 304 305
295 295 297 302 299 284 276 285 301 309 312 311 306 300 282 235 242 262 259 255 259 258 259 263 265 274 273 265 275 283 287 295 301 303 305 312 317 316 314 315 314 309 307 311
309 298 289 282 275 276 289 311 317 308 307 312 312 308 306 302 296 290 282 281 285 285 276 278 283 284 276 275 281 287 295 307 317 321 321 319 320 320 318 320 317 317 320 325
346 346 345 346 341 337 339 341 326 312 310 306 300 301 304 308 309 305 304 307 327 340 319 289 288 294 299 295 296 305 312 317 323 323 322 321 321 320 319 322 325 329 333 339